DW7857 Weather Reports


time (UTC)temp
C
wind
direction
speed
KPH
gust
KPH
rain 1hr
cm
rain 24hr
cm
rain mn
cm
humidity
%
barometer
mb
20260505204503 11 359 6.4 8.0 0.00 0.00 0.00 70 1016.7
20260505203603 11 19 4.8 8.0 0.00 0.00 0.00 69 1016.6
20260505202913 11 13 4.8 6.4 0.00 0.00 0.00 69 1016.7
20260505202013 11 65 4.8 6.4 0.00 0.00 0.00 68 1016.6
20260505200903 11 27 4.8 6.4 0.00 0.00 0.00 67 1016.3
20260505200003 11 68 4.8 6.4 0.00 0.00 0.00 67 1016.3
20260505195613 11 95 4.8 6.4 0.00 0.00 0.00 67 1016.4
20260505194503 12 68 6.4 8.0 0.00 0.00 0.00 66 1016.1
20260505193603 12 52 6.4 8.0 0.00 0.00 0.00 66 1016.0
20260505192913 12 53 6.4 9.7 0.00 0.00 0.00 66 1016.1
20260505191803 12 46 4.8 6.4 0.00 0.00 0.00 62 1016.0
20260505191113 12 4 4.8 6.4 0.00 0.00 0.00 62 1016.1
20260505190213 12 338 6.4 9.7 0.00 0.00 0.00 61 1015.9
20260505185612 12 327 6.4 8.0 0.00 0.00 0.00 61 1016.1
20260505184503 12 25 4.8 6.4 0.00 0.00 0.00 61 1016.0
20260505183813 12 332 6.4 11.3 0.00 0.00 0.00 61 1015.9
20260505182703 12 335 6.4 11.3 0.00 0.00 0.00 61 1015.8
20260505181803 13 317 8.0 12.9 0.00 0.00 0.00 61 1015.7
20260505180903 13 327 9.7 14.5 0.00 0.00 0.00 60 1015.8
20260505180003 13 334 9.7 14.5 0.00 0.00 0.00 56 1016.0
20260505175403 13 140 9.7 12.9 0.00 0.00 0.00 55 1015.8
20260505174504 14 319 9.7 17.7 0.00 0.00 0.00 55 1015.7
20260505173813 14 325 9.7 17.7 0.00 0.00 0.00 54 1015.8
20260505172703 14 336 12.9 17.7 0.00 0.00 0.00 52 1015.8
20260505171803 14 12 11.3 14.5 0.00 0.00 0.00 52 1016.1
20260505170903 15 54 11.3 17.7 0.00 0.00 0.00 51 1016.0
20260505170212 15 22 9.7 17.7 0.00 0.00 0.00 51 1015.7
20260505165403 15 333 11.3 17.7 0.00 0.00 0.00 51 1016.0
20260505164503 15 15 11.3 16.1 0.00 0.00 0.00 51 1015.8
20260505163603 16 19 9.7 16.1 0.00 0.00 0.00 50 1015.9
20260505162703 15 334 12.9 17.7 0.00 0.00 0.00 48 1015.8
20260505161803 15 319 11.3 14.5 0.00 0.00 0.00 50 1015.8
20260505160903 16 49 9.7 12.9 0.00 0.00 0.00 50 1015.8
20260505152703 16 25 11.3 14.5 0.00 0.00 0.00 50 1016.0
20260505152013 16 346 8.0 14.5 0.00 0.00 0.00 48 1016.0
20260505150903 16 30 8.0 12.9 0.00 0.00 0.00 50 1016.1
20260505150213 16 41 9.7 12.9 0.00 0.00 0.00 49 1016.0
20260505140213 17 47 11.3 16.1 0.00 0.00 0.00 46 1016.3
20260505124713 17 350 11.3 14.5 0.00 0.00 0.00 45 1016.6
20260505123603 17 346 9.7 14.5 0.00 0.00 0.00 46 1016.5
20260505122703 17 10 12.9 17.7 0.00 0.00 0.00 51 1016.5
20260505121803 16 34 11.3 16.1 0.00 0.00 0.00 52 1016.7
20260505120903 16 8 11.3 12.9 0.00 0.00 0.00 51 1016.7
20260505120212 16 47 11.3 16.1 0.00 0.00 0.00 53 1016.6
20260505115403 16 12 11.3 17.7 0.00 0.00 0.00 51 1016.5
20260505114503 16 9 11.3 17.7 0.00 0.00 0.00 53 1016.5
20260505113603 17 91 11.3 16.1 0.00 0.00 0.00 51 1016.6
20260505112703 17 21 12.9 16.1 0.00 0.00 0.00 52 1016.8
20260505111803 16 25 12.9 17.7 0.00 0.00 0.00 52 1016.8
20260505110903 16 349 11.3 16.1 0.00 0.00 0.00 52 1016.7
20260505101803 15 58 11.3 17.7 0.00 0.00 0.00 56 1017.1
20260505100903 15 61 11.3 14.5 0.00 0.00 0.00 56 1017.1
20260505100003 15 47 11.3 14.5 0.00 0.00 0.00 60 1017.3
20260505095403 15 11 9.7 14.5 0.00 0.00 0.00 61 1017.1
20260505094503 15 83 8.0 12.9 0.00 0.00 0.00 65 1017.1
20260505093603 13 78 8.0 12.9 0.00 0.00 0.00 68 1017.0
20260505092703 13 5 8.0 12.9 0.00 0.00 0.00 69 1017.1
20260505091803 13 71 9.7 12.9 0.00 0.00 0.00 70 1017.1
20260505090903 12 37 8.0 12.9 0.00 0.00 0.00 72 1016.9
20260505090213 12 38 6.4 9.7 0.00 0.00 0.00 74 1017.1
20260505085403 12 116 8.0 16.1 0.00 0.00 0.00 74 1017.3
20260505084503 12 33 9.7 16.1 0.00 0.00 0.00 75 1017.3
20260505083603 12 349 9.7 12.9 0.00 0.00 0.00 73 1017.0
20260505082703 12 32 9.7 14.5 0.00 0.00 0.00 76 1017.3
20260505081803 12 33 8.0 9.7 0.00 0.00 0.00 81 1017.3
20260505080903 11 25 8.0 11.3 0.00 0.00 0.00 83 1017.1
20260505080004 11 41 8.0 11.3 0.00 0.00 0.00 83 1017.2
20260505075403 11 34 8.0 8.0 0.00 0.00 0.00 84 1017.4
20260505074503 11 357 6.4 9.7 0.00 0.00 0.00 84 1017.2
20260505073603 11 37 6.4 9.7 0.00 0.00 0.00 86 1017.3
20260505072703 11 43 6.4 8.0 0.00 0.00 0.00 87 1017.3
20260505071803 11 11 6.4 8.0 0.00 0.00 0.00 89 1017.3
20260505070903 10 360 4.8 6.4 0.00 0.00 0.00 90 1017.5
20260505070003 10 5 4.8 6.4 0.00 0.00 0.00 92 1017.5
20260505065403 10 10 4.8 6.4 0.00 0.00 0.00 92 1017.3
20260505064713 10 106 4.8 6.4 0.00 0.00 0.00 94 1017.2
20260505063603 10 33 4.8 6.4 0.00 0.00 0.00 95 1017.3
20260505062703 10 45 4.8 6.4 0.00 0.00 0.00 96 1017.1
20260505061803 10 75 4.8 6.4 0.00 0.00 0.00 96 1017.3
20260505060903 9 36 4.8 6.4 0.00 0.00 0.00 96 1017.1
20260505060003 9 63 4.8 4.8 0.00 0.00 0.00 96 1017.1
20260505055403 9 70 3.2 4.8 0.00 0.00 0.00 96 1017.2
20260505054713 9 64 3.2 4.8 0.00 0.00 0.00 96 1017.1
20260505053603 9 20 3.2 6.4 0.00 0.00 0.00 95 1016.9
20260505052703 8 9 1.6 3.2 0.00 0.00 0.00 95 1017.0
20260505051803 8 35 3.2 6.4 0.00 0.00 0.00 95 1017.0
20260505050903 8 45 3.2 4.8 0.00 0.00 0.00 95 1016.8
20260505040903 9 64 1.6 3.2 0.00 0.00 0.00 93 1017.0
20260505040004 9 64 3.2 4.8 0.00 0.00 0.00 93 1016.9
20260505035403 9 51 3.2 4.8 0.00 0.00 0.00 93 1017.0
20260505034503 9 58 3.2 4.8 0.00 0.00 0.00 93 1017.1
20260505033603 9 71 3.2 4.8 0.00 0.00 0.00 93 1017.0
20260505032703 10 72 3.2 4.8 0.00 0.00 0.00 93 1017.2
20260505031803 10 60 3.2 4.8 0.00 0.00 0.00 93 1016.9
20260505030903 10 52 3.2 6.4 0.00 0.00 0.00 92 1016.8
20260505030213 10 66 4.8 6.4 0.00 0.00 0.00 92 1017.1
20260505025403 10 54 3.2 4.8 0.00 0.00 0.00 92 1017.0
20260505024503 10 60 3.2 4.8 0.00 0.00 0.00 92 1017.2
20260505023813 10 51 3.2 3.2 0.00 0.00 0.00 92 1016.8
20260505022703 10 70 1.6 3.2 0.00 0.00 0.00 92 1016.8
20260505021803 10 80 1.6 3.2 0.00 0.00 0.00 91 1017.3
20260505020903 10 52 3.2 3.2 0.00 0.00 0.00 91 1017.2
20260505020003 10 45 3.2 3.2 0.00 0.00 0.00 91 1017.5
20260505015403 11 45 1.6 3.2 0.00 0.00 0.00 91 1017.3
20260505014503 11 54 1.6 3.2 0.00 0.00 0.00 91 1017.3
20260505013813 11 67 1.6 3.2 0.00 0.00 0.00 91 1017.5
20260505012703 11 48 1.6 3.2 0.00 0.00 0.00 91 1017.5
20260505011803 11 67 1.6 3.2 0.00 0.00 0.00 91 1017.3
20260505010903 11 29 1.6 3.2 0.00 0.00 0.00 91 1017.6
20260505010003 11 35 3.2 3.2 0.00 0.00 0.00 91 1017.5
20260505005403 11 63 1.6 3.2 0.00 0.00 0.00 91 1017.5
20260505004503 11 22 3.2 4.8 0.00 0.00 0.00 92 1017.7
20260505003812 11 6 3.2 3.2 0.00 0.00 0.00 92 1017.7
20260505002914 11 315 3.2 3.2 0.00 0.00 0.00 92 1017.8
20260505001803 11 334 1.6 4.8 0.00 0.00 0.00 92 1017.6
20260505000903 11 6 1.6 3.2 0.00 0.00 0.00 92 1017.8
20260505000003 11 54 1.6 3.2 0.00 0.00 0.00 92 1018.1
20260504235613 11 48 1.6 3.2 0.00 0.00 0.00 92 1018.2
20260504234503 11 34 1.6 3.2 0.00 0.00 0.00 92 1018.1
20260504233603 11 66 3.2 4.8 0.00 0.00 0.00 91 1018.0
20260504232703 11 53 3.2 4.8 0.00 0.00 0.00 91 1018.1
20260504232013 11 19 1.6 3.2 0.00 0.00 0.00 91 1017.8
20260504230903 11 140 1.6 3.2 0.00 0.00 0.00 91 1018.1
20260504230004 11 91 1.6 3.2 0.00 0.00 0.00 91 1017.8
20260504225403 11 6 3.2 8.0 0.00 0.00 0.00 91 1017.5
20260504224503 11 327 4.8 8.0 0.00 0.00 0.00 91 1017.5
20260504223603 12 27 3.2 4.8 0.00 0.00 0.00 90 1017.8
20260504222703 12 57 4.8 6.4 0.00 0.00 0.00 90 1018.0
20260504221803 12 61 3.2 6.4 0.00 0.00 0.00 90 1017.9
20260504220903 12 44 3.2 4.8 0.00 0.00 0.00 90 1017.9
20260504220003 12 68 3.2 6.4 0.00 0.00 0.00 86 1018.0
20260504215403 12 50 3.2 6.4 0.00 0.00 0.00 86 1018.1
20260504214503 12 33 3.2 4.8 0.00 0.00 0.00 86 1018.3
20260504213603 12 334 3.2 3.2 0.00 0.00 0.00 86 1018.1
20260504212703 12 59 3.2 3.2 0.00 0.00 0.00 85 1018.3
20260504211803 12 60 1.6 3.2 0.00 0.00 0.00 85 1018.1
20260504210903 12 62 1.6 3.2 0.00 0.00 0.00 84 1018.4
20260504210004 12 45 1.6 3.2 0.00 0.00 0.00 84 1018.0
20260504205403 12 48 3.2 3.2 0.00 0.00 0.00 84 1018.2